Location: Kellogg
(38.0159°N, 90.0546°W)
Time: 08:47:06
(UTC+00:00)

Altair - Pass Details

Date: 17 September 2024
Orbit: 1501 x 1682 km, 47.2° (Epoch: 07 October)

Event Time Altitude Azimuth Distance (km) Brightness Sun altitude
Rises 14:59:49 0° 300° (WNW) 4,939 9.7 36.2°
Reaches altitude 10° 15:03:08 10° 295° (WNW) 3,944 9.3 36.7°
Maximum altitude 15:12:41 49° 225° (SW) 2,052 8.6 38.3°
Drops below altitude 10° 15:22:00 10° 154° (SSE) 3,839 10.5 39.8°
Sets 15:25:12 0° 149° (SSE) 4,798 10.9 40.3°
